CZ-6A DEB

Satellite information

Favourite Embed

Satellite Type and Status

DEBRISIN ORBIT

Key statistics

Satellite CZ-6A DEB at a glance.

Uptime

494

Days in orbit

Revolutions

≈ 14.4

Per day

Orbit

LEO

Low Earth Orbit

Inclination

88.9

Latest

Satellite identification and parameters

Extended collection of information and parameters for CZ-6A DEB.

Object identification

Identified? True

Debris? True

Object name: CZ-6A DEB

International designator: 2024-140ADF

Object number (NORAD): 61839

Object ID (CCSDS): 61839

Country: PEOPLES REPUBLIC OF CHINA (PRC)

Current information (Y/N): Y

RCS size: SMALL

Orbital parameters

Period: 100.321 minutes

Inclination: 88.9311 deg

SMA: 7151.916 km

Apoapsis: 790.737 km

Periapsis: 756.824 km

RAAN: 291.3658 deg

Eccentricy: 0.00237093

Argument of periapsis: 348.6515 deg

Mean anomaly: 11.4146 deg

Mean motion: 14.35387553 rev/day

Mean motion (dot): 0.00012339 rev/day2

B* drag term: 0.0042777395 1/REarth

Two-line elements (TLE)

Creation date: Dec. 8, 2025, 3:46 a.m.

Reference frame: TEME

Reference center: EARTH

Epoch: Dec. 7, 2025, 7:07 a.m. UTC

TLE line 0: 0 CZ-6A DEB

TLE line 1: 1 61839U 24140ADF 25341.29704564 .00012339 00000-0 42777-2 0 9997

TLE line 2: 2 61839 88.9311 291.3658 0023709 348.6515 11.4146 14.35387553 68944

Live tracking on map

Real-time ground track for satellite CZ-6A DEB.

In-orbit conjunctions

A list of the most updated potential collisions computed for object CZ-6A DEB.

Target Orbit TCA Probability of collision Miss distance Type
COSMOS 1954 LEO 2025-09-12 21:37:36 0.0001735962 63.0 (m) PAYLOAD
FENGYUN 1C DEB SSO 2025-02-22 17:19:34 0.0002050926 891.0 (m) DEBRIS
FENGYUN 1C DEB SSO 2025-01-27 05:19:16 0.0001877693 143.0 (m) DEBRIS
COSMOS 2251 DEB LEO 2025-01-25 19:34:49 0.0001486613 241.0 (m) DEBRIS
NOAA 16 DEB SSO 2024-12-18 02:32:11 0.0002071488 595.0 (m) DEBRIS

Associated space launch

18 Low Earth Orbit communication satellites with Ku, Q and V band payloads for the G60 constellation operated by Shanghai Spacecom Satellite Technology (SSST) with funding backed by the Shanghai local government. Initial constellation will consist of 1296 satellites by 2027 with long term plans to expand it to 12000 satellites.

CZ-6A DEB was lifted into orbit during the mission ‘Long March 6A | G60 Polar Group 01’, on board a Long March 6A space rocket.

The launch took place on Aug. 6, 2024, 6:42 a.m. from Launch Complex 9A.

For more information about the launch, click the button.

Launch to space Long March 6A | G60 Polar Group 01
Long March 6A | G60 Polar Group 01

Agency: N/A

Status: Launch Successful

Launch date: Aug. 6, 2024, 6:42 a.m. UTC

Rocket: Long March 6A

Launch pad: Launch Complex 9A

Location: Taiyuan Satellite Launch Center, People's Republic of China

...

Latest news about this satellite

News about space launch
Brightness of first Chinese broadband constellation satellites alarms astronomers

The first satellites of a Chinese broadband constellation are significantly brighter than those of Western systems, posing a new challenge for astronomers.

News about space launch
Chinese rocket stage breaks up into cloud of more than 700 pieces of space debris

HELSINKI — A Chinese Long March 6A rocket’s upper stage has fragmented into a cloud of over 700 pieces of space debris, adding to concerns about long-term orbital safety. China […]

News about space launch
China's Thousand Sails Megaconstellation Kicks Off with Dangerous Debris Field

China's Thousand Sails Megaconstellation Kicks Off with Dangerous Debris Field


Newsletter sign-up

Weekly statistics, charts and insights to help you stay on top of the space industry.